Location: Newark
(48.6461°N, 4.3644°W)
Time: 06:15:52
(UTC+00:00)

Transit 4A - Pass Details

Date: 25 January 2020
Orbit: 872 x 973 km, 66.8° (Epoch: 17 February)

Event Time Altitude Azimuth Distance (km) Brightness Sun altitude
Rises 11:27:01 0° 309° (NW) 3,495 10.4 20.9°
Reaches altitude 10° 11:31:10 10° 336° (NNW) 2,542 9.7 21.1°
Maximum altitude 11:33:45 13° 3° (N) 2,330 9.5 21.2°
Drops below altitude 10° 11:36:20 10° 30° (NNE) 2,532 9.8 21.3°
Sets 11:40:27 0° 58° (ENE) 3,469 10.7 21.4°
